| time (UTC) | temp F | wind direction | speed knots | gust knots | rain 1hr in | rain 24hr in | rain mn in | humidity % | barometer mb |
| 20260505213817 | 47 | 77 | 3.5 | 6.1 | 0.00 | 0.00 | 0.00 | 85 | 991.4 |
| 20260505212703 | 47 | 72 | 3.5 | 7.8 | 0.00 | 0.00 | 0.00 | 85 | 991.4 |
| 20260505211803 | 48 | 2 | 2.6 | 7.8 | 0.00 | 0.00 | 0.00 | 86 | 991.3 |
| 20260505210903 | 48 | 304 | 1.7 | 7.8 | 0.00 | 0.00 | 0.00 | 86 | 991.3 |
| 20260505210003 | 48 | 300 | 0.9 | 2.6 | 0.00 | 0.00 | 0.00 | 86 | 991.4 |
| 20260505205403 | 48 | 300 | 0.9 | 2.6 | 0.00 | 0.00 | 0.00 | 85 | 991.3 |
| 20260505204503 | 48 | 300 | 0.9 | 2.6 | 0.00 | 0.00 | 0.00 | 85 | 991.3 |
| 20260505203603 | 48 | 300 | 0.0 | 2.6 | 0.00 | 0.00 | 0.00 | 84 | 991.0 |
| 20260505202703 | 48 | 300 | 0.9 | 1.7 | 0.00 | 0.00 | 0.00 | 84 | 991.2 |
| 20260505201803 | 48 | 300 | 0.9 | 3.5 | 0.00 | 0.00 | 0.00 | 84 | 991.0 |
| 20260505200903 | 48 | 300 | 1.7 | 3.5 | 0.00 | 0.00 | 0.00 | 83 | 991.0 |
| 20260505200003 | 48 | 300 | 1.7 | 3.5 | 0.00 | 0.00 | 0.00 | 83 | 991.0 |
| 20260505195403 | 48 | 300 | 1.7 | 7.0 | 0.00 | 0.00 | 0.00 | 83 | 991.0 |
| 20260505194503 | 49 | 300 | 1.7 | 4.3 | 0.00 | 0.00 | 0.00 | 83 | 990.8 |
| 20260505193818 | 49 | 300 | 1.7 | 6.1 | 0.00 | 0.00 | 0.00 | 83 | 990.7 |
| 20260505192703 | 49 | 300 | 2.6 | 4.3 | 0.00 | 0.00 | 0.00 | 83 | 990.7 |
| 20260505192017 | 49 | 300 | 2.6 | 6.1 | 0.00 | 0.00 | 0.00 | 82 | 990.7 |
| 20260505190903 | 50 | 298 | 2.6 | 8.7 | 0.00 | 0.00 | 0.00 | 81 | 990.5 |
| 20260505190217 | 50 | 295 | 1.7 | 8.7 | 0.00 | 0.00 | 0.00 | 81 | 990.5 |
| 20260505185617 | 51 | 289 | 1.7 | 6.1 | 0.00 | 0.00 | 0.00 | 81 | 990.6 |
| 20260505184503 | 51 | 288 | 2.6 | 7.0 | 0.00 | 0.00 | 0.00 | 81 | 990.5 |
| 20260505183603 | 51 | 288 | 1.7 | 7.0 | 0.00 | 0.00 | 0.00 | 81 | 990.6 |
| 20260505182703 | 51 | 288 | 1.7 | 4.3 | 0.00 | 0.00 | 0.00 | 82 | 990.5 |
| 20260505181803 | 51 | 288 | 1.7 | 6.1 | 0.00 | 0.00 | 0.00 | 82 | 990.5 |
| 20260505180903 | 51 | 288 | 1.7 | 6.1 | 0.00 | 0.00 | 0.00 | 82 | 990.4 |
| 20260505180003 | 51 | 288 | 1.7 | 6.1 | 0.00 | 0.00 | 0.00 | 82 | 990.4 |
| 20260505175403 | 51 | 288 | 2.6 | 6.1 | 0.00 | 0.00 | 0.00 | 82 | 990.5 |
| 20260505174503 | 51 | 286 | 2.6 | 7.8 | 0.00 | 0.00 | 0.00 | 82 | 990.5 |
| 20260505173603 | 51 | 286 | 1.7 | 7.0 | 0.00 | 0.00 | 0.00 | 83 | 990.6 |
| 20260505172703 | 51 | 285 | 2.6 | 3.5 | 0.00 | 0.00 | 0.00 | 84 | 990.5 |
| 20260505171803 | 51 | 285 | 3.5 | 7.0 | 0.00 | 0.00 | 0.00 | 84 | 990.7 |
| 20260505170903 | 50 | 285 | 2.6 | 7.0 | 0.00 | 0.00 | 0.00 | 84 | 990.5 |
| 20260505170217 | 50 | 285 | 2.6 | 7.8 | 0.00 | 0.00 | 0.00 | 83 | 990.7 |
| 20260505165403 | 50 | 284 | 1.7 | 6.1 | 0.00 | 0.00 | 0.00 | 83 | 990.7 |
| 20260505164503 | 50 | 284 | 2.6 | 5.2 | 0.00 | 0.00 | 0.00 | 85 | 990.6 |
| 20260505163603 | 50 | 284 | 3.5 | 7.0 | 0.00 | 0.00 | 0.00 | 84 | 990.6 |
| 20260505162703 | 50 | 284 | 2.6 | 7.0 | 0.00 | 0.00 | 0.00 | 84 | 990.7 |
| 20260505161803 | 50 | 284 | 3.5 | 6.1 | 0.00 | 0.00 | 0.00 | 84 | 990.8 |
| 20260505160903 | 50 | 284 | 2.6 | 7.0 | 0.00 | 0.00 | 0.00 | 84 | 990.7 |
| 20260505160216 | 50 | 284 | 2.6 | 6.1 | 0.00 | 0.00 | 0.00 | 83 | 990.9 |
| 20260505152703 | 51 | 282 | 4.3 | 7.0 | 0.00 | 0.00 | 0.00 | 83 | 990.8 |
| 20260505151803 | 51 | 282 | 4.3 | 9.6 | 0.00 | 0.00 | 0.00 | 82 | 990.9 |
| 20260505150903 | 52 | 286 | 2.6 | 9.6 | 0.00 | 0.00 | 0.00 | 80 | 990.9 |
| 20260505124718 | 49 | 300 | 2.6 | 7.8 | 0.00 | 0.00 | 0.00 | 81 | 991.0 |
| 20260505123603 | 49 | 300 | 2.6 | 6.1 | 0.00 | 0.00 | 0.00 | 82 | 991.1 |
| 20260505122703 | 50 | 295 | 2.6 | 7.0 | 0.00 | 0.00 | 0.00 | 81 | 991.1 |
| 20260505121803 | 51 | 295 | 2.6 | 7.0 | 0.00 | 0.00 | 0.00 | 79 | 991.0 |
| 20260505121117 | 51 | 297 | 2.6 | 7.0 | 0.00 | 0.00 | 0.00 | 77 | 991.0 |
| 20260505120003 | 51 | 309 | 3.5 | 7.8 | 0.00 | 0.00 | 0.00 | 77 | 991.0 |
| 20260505115403 | 51 | 321 | 2.6 | 7.0 | 0.00 | 0.00 | 0.00 | 79 | 991.0 |
| 20260505114503 | 50 | 335 | 2.6 | 5.2 | 0.00 | 0.00 | 0.00 | 79 | 991.1 |
| 20260505113603 | 50 | 338 | 1.7 | 10.4 | 0.00 | 0.00 | 0.00 | 79 | 991.2 |
| 20260505112703 | 50 | 322 | 1.7 | 4.3 | 0.00 | 0.00 | 0.00 | 80 | 991.3 |
| 20260505111803 | 50 | 323 | 1.7 | 5.2 | 0.00 | 0.00 | 0.00 | 79 | 991.3 |
| 20260505110903 | 50 | 325 | 1.7 | 7.0 | 0.00 | 0.00 | 0.00 | 80 | 991.3 |
| 20260505101803 | 52 | 317 | 3.5 | 7.8 | 0.00 | 0.00 | 0.00 | 75 | 991.3 |
| 20260505100903 | 52 | 332 | 2.6 | 7.8 | 0.00 | 0.00 | 0.00 | 73 | 991.3 |
| 20260505100003 | 51 | 347 | 3.5 | 10.4 | 0.00 | 0.00 | 0.00 | 75 | 991.2 |
| 20260505095403 | 51 | 332 | 3.5 | 10.4 | 0.00 | 0.00 | 0.00 | 74 | 991.3 |
| 20260505094503 | 51 | 314 | 3.5 | 8.7 | 0.00 | 0.00 | 0.00 | 76 | 991.5 |
| 20260505093603 | 50 | 286 | 3.5 | 10.4 | 0.00 | 0.00 | 0.00 | 77 | 991.4 |
| 20260505092703 | 51 | 334 | 3.5 | 9.6 | 0.00 | 0.00 | 0.00 | 76 | 991.4 |
| 20260505091803 | 51 | 309 | 4.3 | 8.7 | 0.00 | 0.00 | 0.00 | 77 | 991.4 |
| 20260505091116 | 51 | 301 | 4.3 | 8.7 | 0.00 | 0.00 | 0.00 | 78 | 991.3 |
| 20260505090003 | 50 | 299 | 3.5 | 8.7 | 0.00 | 0.00 | 0.00 | 79 | 991.2 |
| 20260505085403 | 51 | 307 | 3.5 | 9.6 | 0.00 | 0.00 | 0.00 | 75 | 991.3 |
| 20260505084503 | 51 | 309 | 2.6 | 8.7 | 0.00 | 0.00 | 0.00 | 74 | 991.4 |
| 20260505083818 | 52 | 315 | 2.6 | 7.0 | 0.00 | 0.00 | 0.00 | 77 | 991.5 |
| 20260505082703 | 51 | 334 | 3.5 | 7.8 | 0.00 | 0.00 | 0.00 | 80 | 991.4 |
| 20260505081803 | 50 | 350 | 3.5 | 9.6 | 0.00 | 0.00 | 0.00 | 81 | 991.3 |
| 20260505080903 | 50 | 337 | 2.6 | 7.8 | 0.00 | 0.00 | 0.00 | 82 | 991.4 |
| 20260505080003 | 50 | 318 | 3.5 | 8.7 | 0.00 | 0.00 | 0.00 | 85 | 991.5 |
| 20260505075403 | 49 | 332 | 2.6 | 8.7 | 0.00 | 0.00 | 0.00 | 85 | 991.4 |
| 20260505074503 | 48 | 346 | 2.6 | 7.8 | 0.00 | 0.00 | 0.00 | 86 | 991.3 |
| 20260505073603 | 48 | 325 | 2.6 | 7.8 | 0.00 | 0.00 | 0.00 | 87 | 991.2 |
| 20260505072703 | 48 | 311 | 2.6 | 7.0 | 0.00 | 0.00 | 0.00 | 88 | 991.3 |
| 20260505071803 | 47 | 308 | 1.7 | 8.7 | 0.00 | 0.00 | 0.00 | 88 | 991.4 |
| 20260505070903 | 47 | 307 | 1.7 | 4.3 | 0.00 | 0.00 | 0.00 | 89 | 991.5 |
| 20260505070003 | 47 | 310 | 2.6 | 7.0 | 0.00 | 0.00 | 0.00 | 89 | 991.6 |
| 20260505065403 | 47 | 310 | 2.6 | 7.0 | 0.00 | 0.00 | 0.00 | 90 | 991.7 |
| 20260505064718 | 46 | 308 | 2.6 | 7.0 | 0.00 | 0.00 | 0.00 | 90 | 991.7 |
| 20260505063603 | 46 | 311 | 1.7 | 7.0 | 0.00 | 0.00 | 0.00 | 91 | 991.7 |
| 20260505062703 | 46 | 311 | 1.7 | 3.5 | 0.00 | 0.00 | 0.00 | 92 | 991.6 |
| 20260505062018 | 45 | 311 | 1.7 | 5.2 | 0.00 | 0.00 | 0.00 | 92 | 991.5 |
| 20260505060903 | 45 | 312 | 0.9 | 4.3 | 0.00 | 0.00 | 0.00 | 92 | 991.6 |
| 20260505060003 | 45 | 313 | 0.9 | 5.2 | 0.00 | 0.00 | 0.00 | 93 | 991.7 |
| 20260505055403 | 45 | 313 | 0.9 | 5.2 | 0.00 | 0.00 | 0.00 | 92 | 991.6 |
| 20260505054503 | 44 | 313 | 0.0 | 2.6 | 0.00 | 0.00 | 0.00 | 93 | 991.6 |
| 20260505053817 | 44 | 313 | 0.0 | 1.7 | 0.00 | 0.00 | 0.00 | 93 | 991.6 |
| 20260505052703 | 44 | 312 | 0.0 | 2.6 | 0.00 | 0.00 | 0.00 | 93 | 991.8 |
| 20260505051803 | 43 | 313 | 0.0 | 2.6 | 0.00 | 0.00 | 0.00 | 93 | 991.7 |
| 20260505050903 | 43 | 313 | 0.0 | 1.7 | 0.00 | 0.00 | 0.00 | 93 | 991.8 |
| 20260505040903 | 44 | 312 | 0.9 | 2.6 | 0.00 | 0.00 | 0.00 | 92 | 991.5 |
| 20260505040004 | 44 | 312 | 0.9 | 3.5 | 0.00 | 0.00 | 0.00 | 92 | 991.5 |
| 20260505035403 | 44 | 313 | 0.9 | 3.5 | 0.00 | 0.00 | 0.00 | 92 | 991.4 |
| 20260505034503 | 44 | 313 | 0.0 | 3.5 | 0.00 | 0.00 | 0.00 | 92 | 991.3 |
| 20260505033603 | 44 | 313 | 0.0 | 1.7 | 0.00 | 0.00 | 0.00 | 92 | 991.2 |
| 20260505032703 | 44 | 313 | 0.0 | 4.3 | 0.00 | 0.00 | 0.00 | 91 | 991.4 |
| 20260505031803 | 44 | 313 | 0.0 | 1.7 | 0.00 | 0.00 | 0.00 | 91 | 991.3 |
| 20260505031118 | 44 | 313 | 0.0 | 1.7 | 0.00 | 0.00 | 0.00 | 91 | 991.5 |
| 20260505030003 | 45 | 313 | 1.7 | 3.5 | 0.00 | 0.00 | 0.00 | 91 | 991.5 |
| 20260505025403 | 45 | 313 | 1.7 | 5.2 | 0.00 | 0.00 | 0.00 | 91 | 991.4 |
| 20260505024503 | 45 | 314 | 1.7 | 3.5 | 0.00 | 0.00 | 0.00 | 91 | 991.4 |
| 20260505023603 | 45 | 315 | 1.7 | 5.2 | 0.00 | 0.00 | 0.00 | 91 | 991.4 |
| 20260505022917 | 45 | 317 | 1.7 | 5.2 | 0.00 | 0.00 | 0.00 | 92 | 991.5 |
| 20260505021803 | 45 | 317 | 1.7 | 3.5 | 0.00 | 0.00 | 0.00 | 92 | 991.4 |
| 20260505020903 | 45 | 317 | 1.7 | 5.2 | 0.00 | 0.00 | 0.00 | 92 | 991.5 |
| 20260505020003 | 45 | 318 | 0.9 | 5.2 | 0.00 | 0.00 | 0.00 | 92 | 991.6 |
| 20260505015403 | 44 | 319 | 0.9 | 4.3 | 0.00 | 0.00 | 0.00 | 92 | 991.7 |
| 20260505014503 | 44 | 319 | 0.9 | 3.5 | 0.00 | 0.00 | 0.00 | 92 | 991.8 |
| 20260505013603 | 44 | 319 | 0.9 | 3.5 | 0.00 | 0.00 | 0.00 | 92 | 991.8 |
| 20260505012917 | 44 | 319 | 0.9 | 3.5 | 0.00 | 0.00 | 0.00 | 92 | 991.8 |
| 20260505011803 | 44 | 319 | 0.9 | 2.6 | 0.00 | 0.00 | 0.00 | 92 | 992.0 |
| 20260505010903 | 44 | 319 | 0.9 | 2.6 | 0.00 | 0.00 | 0.00 | 92 | 992.1 |
| 20260505010003 | 45 | 319 | 0.9 | 3.5 | 0.00 | 0.00 | 0.00 | 91 | 992.1 |
| 20260505005403 | 45 | 319 | 0.0 | 2.6 | 0.00 | 0.00 | 0.00 | 91 | 992.3 |
| 20260505004503 | 45 | 319 | 0.9 | 3.5 | 0.00 | 0.00 | 0.00 | 91 | 992.0 |
| 20260505003603 | 45 | 319 | 0.9 | 3.5 | 0.00 | 0.00 | 0.00 | 91 | 992.0 |
| 20260505002703 | 45 | 319 | 0.9 | 4.3 | 0.00 | 0.00 | 0.00 | 91 | 992.0 |
| 20260505001803 | 45 | 319 | 0.9 | 3.5 | 0.00 | 0.00 | 0.00 | 91 | 992.1 |
| 20260505000903 | 44 | 319 | 0.9 | 3.5 | 0.00 | 0.00 | 0.00 | 91 | 992.2 |
| 20260505000003 | 44 | 319 | 0.9 | 2.6 | 0.00 | 0.00 | 0.00 | 90 | 992.4 |
| 20260504235403 | 44 | 319 | 0.9 | 4.3 | 0.00 | 0.00 | 0.00 | 90 | 992.4 |
| 20260504234503 | 44 | 319 | 0.9 | 2.6 | 0.00 | 0.00 | 0.00 | 90 | 992.4 |
| 20260504233603 | 45 | 319 | 0.9 | 2.6 | 0.00 | 0.00 | 0.00 | 90 | 992.6 |
| 20260504232703 | 45 | 319 | 0.9 | 2.6 | 0.00 | 0.00 | 0.00 | 90 | 992.4 |
| 20260504231803 | 45 | 319 | 0.0 | 1.7 | 0.00 | 0.00 | 0.00 | 90 | 992.5 |
| 20260504230903 | 45 | 319 | 0.9 | 1.7 | 0.00 | 0.00 | 0.00 | 90 | 992.4 |
| 20260504230003 | 45 | 319 | 0.0 | 2.6 | 0.00 | 0.00 | 0.00 | 90 | 992.4 |
| 20260504225617 | 45 | 319 | 0.0 | 2.6 | 0.00 | 0.00 | 0.00 | 90 | 992.4 |
| 20260504224504 | 45 | 319 | 0.0 | 1.7 | 0.00 | 0.00 | 0.00 | 91 | 992.5 |
| 20260504223603 | 46 | 319 | 0.0 | 0.9 | 0.00 | 0.00 | 0.00 | 90 | 992.5 |
| 20260504222703 | 46 | 319 | 0.9 | 1.7 | 0.00 | 0.00 | 0.00 | 91 | 992.7 |
| 20260504221803 | 46 | 319 | 0.0 | 4.3 | 0.00 | 0.00 | 0.00 | 91 | 992.7 |
| 20260504220903 | 46 | 0 | 0.0 | 0.0 | 0.00 | 0.00 | 0.00 | 90 | 992.8 |
| 20260504220003 | 47 | 319 | 0.0 | 1.7 | 0.00 | 0.00 | 0.00 | 91 | 992.6 |
| 20260504215403 | 47 | 319 | 0.0 | 0.9 | 0.00 | 0.00 | 0.00 | 90 | 992.6 |
| 20260504214716 | 47 | 319 | 0.9 | 2.6 | 0.00 | 0.00 | 0.00 | 90 | 992.7 |